Terminal Aerodrome Forecast
Issued by NWS Grand Forks, ND

Home | Current Version | Previous Version | Graphics & Text | Print | Product List | Glossary On
Versions: 1 2 3 4 5 6 7 8 9 10 11 12 13 14 15 16 17 18 19
000
FTUS43 KFGF 021720
TAFGFK
TAF
KGFK 021720Z 0218/0318 21007KT P6SM SCT250
     FM022300 VRB03KT P6SM VCSH BKN100
     FM030500 27005KT P6SM SCT250=

USA.gov is the U.S. government's official web portal to all federal, state and local government web resources and services.